GSAT0201 (PRN E18)

Last updated on June 17, 2019, 3:37 a.m. UTC

1 40128U 14050A   19166.79907759 -.00000120  00000-0  00000+0 0  9994
2 40128  50.5683  16.0486 1666381  87.5019 291.4563  1.85518525 32791
UTC
Height (km)
Latitude
Longitude
Inclination
Orbital Period
UTC large
Height (km)
Speed (km/s)
/
Latitude / Longitude
Inclination (degrees)
Orbital Period (minutes)
Azimuth
Elevation
Range (km)
Doppler Factor
iOS Compass Heading
iOS Angle

Next 30 passes for location: Hong Kong

Rise time Rise Azimuth (degrees) Set time Set Azimuth (degrees) Duration Max altitude (degrees)

No matching passes for this satellites